カタログに戻る

STARLINK-11478

運用中通信VLEO
NORAD 62557·PAYLOAD·🇺🇸 United States

打ち上げ Jan 10, 2025 から Cape Canaveral Space Force Station

Loading…

次のパス (今後24時間)

TLE

最新Source: CelesTrak SupGP

元期: Sep 14, 2026, 22:40 UTC

1 62557C 25006D   26257.94493056  .00075336  00000+0  58529-3 0  2572
2 62557  43.0008  79.1378 0001713 274.2794 215.6901 15.70794612    11

AllMySatでSTARLINK-11478をリアルタイム追跡

Download on the App Store